Index of /20260417/WXO-DD/model_rdps/10km/00/022
Name Last modified Size Description
Parent Directory -
20260417T00Z_MSC_RDPS_AbsoluteVorticity_IsbL-0250_RLatLon0.09_PT022H.grib2 2026-04-17 02:44 610K
20260417T00Z_MSC_RDPS_AbsoluteVorticity_IsbL-0500_RLatLon0.09_PT022H.grib2 2026-04-17 02:44 558K
20260417T00Z_MSC_RDPS_AbsoluteVorticity_IsbL-0700_RLatLon0.09_PT022H.grib2 2026-04-17 02:44 620K
20260417T00Z_MSC_RDPS_AbsoluteVorticity_IsbL-0850_RLatLon0.09_PT022H.grib2 2026-04-17 02:44 780K
20260417T00Z_MSC_RDPS_AirTemp_AGL-120m_RLatLon0.09_PT022H.grib2 2026-04-17 02:44 396K
20260417T00Z_MSC_RDPS_AirTemp_AGL-2m_RLatLon0.09_PT022H.grib2 2026-04-17 02:44 629K
20260417T00Z_MSC_RDPS_AirTemp_AGL-40m_RLatLon0.09_PT022H.grib2 2026-04-17 02:44 405K
20260417T00Z_MSC_RDPS_AirTemp_AGL-80m_RLatLon0.09_PT022H.grib2 2026-04-17 02:44 400K
20260417T00Z_MSC_RDPS_AirTemp_IsbL-0001_RLatLon0.09_PT022H.grib2 2026-04-17 02:44 315K
20260417T00Z_MSC_RDPS_AirTemp_IsbL-0005_RLatLon0.09_PT022H.grib2 2026-04-17 02:44 255K
20260417T00Z_MSC_RDPS_AirTemp_IsbL-0010_RLatLon0.09_PT022H.grib2 2026-04-17 02:44 343K
20260417T00Z_MSC_RDPS_AirTemp_IsbL-0020_RLatLon0.09_PT022H.grib2 2026-04-17 02:44 361K
20260417T00Z_MSC_RDPS_AirTemp_IsbL-0030_RLatLon0.09_PT022H.grib2 2026-04-17 02:44 380K
20260417T00Z_MSC_RDPS_AirTemp_IsbL-0050_RLatLon0.09_PT022H.grib2 2026-04-17 02:44 326K
20260417T00Z_MSC_RDPS_AirTemp_IsbL-0100_RLatLon0.09_PT022H.grib2 2026-04-17 02:44 422K
20260417T00Z_MSC_RDPS_AirTemp_IsbL-0150_RLatLon0.09_PT022H.grib2 2026-04-17 02:44 409K
20260417T00Z_MSC_RDPS_AirTemp_IsbL-0175_RLatLon0.09_PT022H.grib2 2026-04-17 02:44 407K
20260417T00Z_MSC_RDPS_AirTemp_IsbL-0200_RLatLon0.09_PT022H.grib2 2026-04-17 02:44 413K
20260417T00Z_MSC_RDPS_AirTemp_IsbL-0225_RLatLon0.09_PT022H.grib2 2026-04-17 02:44 416K
20260417T00Z_MSC_RDPS_AirTemp_IsbL-0250_RLatLon0.09_PT022H.grib2 2026-04-17 02:44 423K
20260417T00Z_MSC_RDPS_AirTemp_IsbL-0275_RLatLon0.09_PT022H.grib2 2026-04-17 02:44 404K
20260417T00Z_MSC_RDPS_AirTemp_IsbL-0300_RLatLon0.09_PT022H.grib2 2026-04-17 02:44 434K
20260417T00Z_MSC_RDPS_AirTemp_IsbL-0350_RLatLon0.09_PT022H.grib2 2026-04-17 02:44 419K
20260417T00Z_MSC_RDPS_AirTemp_IsbL-0400_RLatLon0.09_PT022H.grib2 2026-04-17 02:44 385K
20260417T00Z_MSC_RDPS_AirTemp_IsbL-0450_RLatLon0.09_PT022H.grib2 2026-04-17 02:44 390K
20260417T00Z_MSC_RDPS_AirTemp_IsbL-0500_RLatLon0.09_PT022H.grib2 2026-04-17 02:44 404K
20260417T00Z_MSC_RDPS_AirTemp_IsbL-0550_RLatLon0.09_PT022H.grib2 2026-04-17 02:44 424K
20260417T00Z_MSC_RDPS_AirTemp_IsbL-0600_RLatLon0.09_PT022H.grib2 2026-04-17 02:44 443K
20260417T00Z_MSC_RDPS_AirTemp_IsbL-0650_RLatLon0.09_PT022H.grib2 2026-04-17 02:44 355K
20260417T00Z_MSC_RDPS_AirTemp_IsbL-0700_RLatLon0.09_PT022H.grib2 2026-04-17 02:44 379K
20260417T00Z_MSC_RDPS_AirTemp_IsbL-0750_RLatLon0.09_PT022H.grib2 2026-04-17 02:44 414K
20260417T00Z_MSC_RDPS_AirTemp_IsbL-0800_RLatLon0.09_PT022H.grib2 2026-04-17 02:44 455K
20260417T00Z_MSC_RDPS_AirTemp_IsbL-0850_RLatLon0.09_PT022H.grib2 2026-04-17 02:44 502K
20260417T00Z_MSC_RDPS_AirTemp_IsbL-0875_RLatLon0.09_PT022H.grib2 2026-04-17 02:44 530K
20260417T00Z_MSC_RDPS_AirTemp_IsbL-0900_RLatLon0.09_PT022H.grib2 2026-04-17 02:44 540K
20260417T00Z_MSC_RDPS_AirTemp_IsbL-0925_RLatLon0.09_PT022H.grib2 2026-04-17 02:44 539K
20260417T00Z_MSC_RDPS_AirTemp_IsbL-0950_RLatLon0.09_PT022H.grib2 2026-04-17 02:44 538K
20260417T00Z_MSC_RDPS_AirTemp_IsbL-0970_RLatLon0.09_PT022H.grib2 2026-04-17 02:44 531K
20260417T00Z_MSC_RDPS_AirTemp_IsbL-0985_RLatLon0.09_PT022H.grib2 2026-04-17 02:44 522K
20260417T00Z_MSC_RDPS_AirTemp_IsbL-1000_RLatLon0.09_PT022H.grib2 2026-04-17 02:44 511K
20260417T00Z_MSC_RDPS_AirTemp_IsbL-1015_RLatLon0.09_PT022H.grib2 2026-04-17 02:44 506K
20260417T00Z_MSC_RDPS_Albedo_Sfc_RLatLon0.09_PT022H.grib2 2026-04-17 02:44 165K
20260417T00Z_MSC_RDPS_CAPE_Sfc_RLatLon0.09_PT022H.grib2 2026-04-17 02:44 1.7M
20260417T00Z_MSC_RDPS_CIN_Sfc_RLatLon0.09_PT022H.grib2 2026-04-17 02:44 1.2M
20260417T00Z_MSC_RDPS_CloudWater_EAtm_RLatLon0.09_PT022H.grib2 2026-04-17 02:44 214K
20260417T00Z_MSC_RDPS_ConvectivePrecip-Accum_Sfc_RLatLon0.09_PT022H.grib2 2026-04-17 02:44 824K
20260417T00Z_MSC_RDPS_DewPointDepression_AGL-2m_RLatLon0.09_PT022H.grib2 2026-04-17 02:44 409K
20260417T00Z_MSC_RDPS_DewPointDepression_IsbL-0001_RLatLon0.09_PT022H.grib2 2026-04-17 02:44 193
20260417T00Z_MSC_RDPS_DewPointDepression_IsbL-0005_RLatLon0.09_PT022H.grib2 2026-04-17 02:44 193
20260417T00Z_MSC_RDPS_DewPointDepression_IsbL-0010_RLatLon0.09_PT022H.grib2 2026-04-17 02:44 193
20260417T00Z_MSC_RDPS_DewPointDepression_IsbL-0020_RLatLon0.09_PT022H.grib2 2026-04-17 02:44 193
20260417T00Z_MSC_RDPS_DewPointDepression_IsbL-0030_RLatLon0.09_PT022H.grib2 2026-04-17 02:44 3.9K
20260417T00Z_MSC_RDPS_DewPointDepression_IsbL-0050_RLatLon0.09_PT022H.grib2 2026-04-17 02:44 102K
20260417T00Z_MSC_RDPS_DewPointDepression_IsbL-0100_RLatLon0.09_PT022H.grib2 2026-04-17 02:44 122K
20260417T00Z_MSC_RDPS_DewPointDepression_IsbL-0150_RLatLon0.09_PT022H.grib2 2026-04-17 02:44 147K
20260417T00Z_MSC_RDPS_DewPointDepression_IsbL-0175_RLatLon0.09_PT022H.grib2 2026-04-17 02:44 178K
20260417T00Z_MSC_RDPS_DewPointDepression_IsbL-0200_RLatLon0.09_PT022H.grib2 2026-04-17 02:44 209K
20260417T00Z_MSC_RDPS_DewPointDepression_IsbL-0225_RLatLon0.09_PT022H.grib2 2026-04-17 02:44 248K
20260417T00Z_MSC_RDPS_DewPointDepression_IsbL-0250_RLatLon0.09_PT022H.grib2 2026-04-17 02:44 293K
20260417T00Z_MSC_RDPS_DewPointDepression_IsbL-0275_RLatLon0.09_PT022H.grib2 2026-04-17 02:44 303K
20260417T00Z_MSC_RDPS_DewPointDepression_IsbL-0300_RLatLon0.09_PT022H.grib2 2026-04-17 02:44 318K
20260417T00Z_MSC_RDPS_DewPointDepression_IsbL-0350_RLatLon0.09_PT022H.grib2 2026-04-17 02:44 319K
20260417T00Z_MSC_RDPS_DewPointDepression_IsbL-0400_RLatLon0.09_PT022H.grib2 2026-04-17 02:44 332K
20260417T00Z_MSC_RDPS_DewPointDepression_IsbL-0450_RLatLon0.09_PT022H.grib2 2026-04-17 02:44 339K
20260417T00Z_MSC_RDPS_DewPointDepression_IsbL-0500_RLatLon0.09_PT022H.grib2 2026-04-17 02:44 346K
20260417T00Z_MSC_RDPS_DewPointDepression_IsbL-0550_RLatLon0.09_PT022H.grib2 2026-04-17 02:44 359K
20260417T00Z_MSC_RDPS_DewPointDepression_IsbL-0600_RLatLon0.09_PT022H.grib2 2026-04-17 02:44 374K
20260417T00Z_MSC_RDPS_DewPointDepression_IsbL-0650_RLatLon0.09_PT022H.grib2 2026-04-17 02:44 385K
20260417T00Z_MSC_RDPS_DewPointDepression_IsbL-0700_RLatLon0.09_PT022H.grib2 2026-04-17 02:44 399K
20260417T00Z_MSC_RDPS_DewPointDepression_IsbL-0750_RLatLon0.09_PT022H.grib2 2026-04-17 02:44 423K
20260417T00Z_MSC_RDPS_DewPointDepression_IsbL-0800_RLatLon0.09_PT022H.grib2 2026-04-17 02:44 457K
20260417T00Z_MSC_RDPS_DewPointDepression_IsbL-0850_RLatLon0.09_PT022H.grib2 2026-04-17 02:44 478K
20260417T00Z_MSC_RDPS_DewPointDepression_IsbL-0875_RLatLon0.09_PT022H.grib2 2026-04-17 02:44 475K
20260417T00Z_MSC_RDPS_DewPointDepression_IsbL-0900_RLatLon0.09_PT022H.grib2 2026-04-17 02:44 466K
20260417T00Z_MSC_RDPS_DewPointDepression_IsbL-0925_RLatLon0.09_PT022H.grib2 2026-04-17 02:44 452K
20260417T00Z_MSC_RDPS_DewPointDepression_IsbL-0950_RLatLon0.09_PT022H.grib2 2026-04-17 02:44 439K
20260417T00Z_MSC_RDPS_DewPointDepression_IsbL-0970_RLatLon0.09_PT022H.grib2 2026-04-17 02:44 430K
20260417T00Z_MSC_RDPS_DewPointDepression_IsbL-0985_RLatLon0.09_PT022H.grib2 2026-04-17 02:44 426K
20260417T00Z_MSC_RDPS_DewPointDepression_IsbL-1000_RLatLon0.09_PT022H.grib2 2026-04-17 02:44 424K
20260417T00Z_MSC_RDPS_DewPointDepression_IsbL-1015_RLatLon0.09_PT022H.grib2 2026-04-17 02:44 416K
20260417T00Z_MSC_RDPS_DewPoint_AGL-2m_RLatLon0.09_PT022H.grib2 2026-04-17 02:44 397K
20260417T00Z_MSC_RDPS_DownwardLongwaveRadiationFlux-Accum_Sfc_RLatLon0.09_PT022H.grib2 2026-04-17 02:44 427K
20260417T00Z_MSC_RDPS_DownwardShortwaveRadiationFlux-Accum_NTAtm_RLatLon0.09_PT022H.grib2 2026-04-17 02:44 100K
20260417T00Z_MSC_RDPS_DownwardShortwaveRadiationFlux-Accum_Sfc_RLatLon0.09_PT022H.grib2 2026-04-17 02:44 607K
20260417T00Z_MSC_RDPS_FreezingRain-Accum1h_Sfc_RLatLon0.09_PT022H.grib2 2026-04-17 02:44 18K
20260417T00Z_MSC_RDPS_FreezingRain-Accum_Sfc_RLatLon0.09_PT022H.grib2 2026-04-17 02:44 93K
20260417T00Z_MSC_RDPS_GeopotentialHeight_IsbL-0001_RLatLon0.09_PT022H.grib2 2026-04-17 02:44 271K
20260417T00Z_MSC_RDPS_GeopotentialHeight_IsbL-0005_RLatLon0.09_PT022H.grib2 2026-04-17 02:44 234K
20260417T00Z_MSC_RDPS_GeopotentialHeight_IsbL-0010_RLatLon0.09_PT022H.grib2 2026-04-17 02:44 308K
20260417T00Z_MSC_RDPS_GeopotentialHeight_IsbL-0020_RLatLon0.09_PT022H.grib2 2026-04-17 02:44 336K
20260417T00Z_MSC_RDPS_GeopotentialHeight_IsbL-0030_RLatLon0.09_PT022H.grib2 2026-04-17 02:44 338K
20260417T00Z_MSC_RDPS_GeopotentialHeight_IsbL-0050_RLatLon0.09_PT022H.grib2 2026-04-17 02:44 311K
20260417T00Z_MSC_RDPS_GeopotentialHeight_IsbL-0100_RLatLon0.09_PT022H.grib2 2026-04-17 02:44 290K
20260417T00Z_MSC_RDPS_GeopotentialHeight_IsbL-0150_RLatLon0.09_PT022H.grib2 2026-04-17 02:44 262K
20260417T00Z_MSC_RDPS_GeopotentialHeight_IsbL-0175_RLatLon0.09_PT022H.grib2 2026-04-17 02:44 264K
20260417T00Z_MSC_RDPS_GeopotentialHeight_IsbL-0200_RLatLon0.09_PT022H.grib2 2026-04-17 02:44 266K
20260417T00Z_MSC_RDPS_GeopotentialHeight_IsbL-0225_RLatLon0.09_PT022H.grib2 2026-04-17 02:44 266K
20260417T00Z_MSC_RDPS_GeopotentialHeight_IsbL-0250_RLatLon0.09_PT022H.grib2 2026-04-17 02:44 267K
20260417T00Z_MSC_RDPS_GeopotentialHeight_IsbL-0275_RLatLon0.09_PT022H.grib2 2026-04-17 02:44 267K
20260417T00Z_MSC_RDPS_GeopotentialHeight_IsbL-0300_RLatLon0.09_PT022H.grib2 2026-04-17 02:44 265K
20260417T00Z_MSC_RDPS_GeopotentialHeight_IsbL-0350_RLatLon0.09_PT022H.grib2 2026-04-17 02:44 230K
20260417T00Z_MSC_RDPS_GeopotentialHeight_IsbL-0400_RLatLon0.09_PT022H.grib2 2026-04-17 02:44 227K
20260417T00Z_MSC_RDPS_GeopotentialHeight_IsbL-0450_RLatLon0.09_PT022H.grib2 2026-04-17 02:44 223K
20260417T00Z_MSC_RDPS_GeopotentialHeight_IsbL-0500_RLatLon0.09_PT022H.grib2 2026-04-17 02:44 289K
20260417T00Z_MSC_RDPS_GeopotentialHeight_IsbL-0550_RLatLon0.09_PT022H.grib2 2026-04-17 02:44 285K
20260417T00Z_MSC_RDPS_GeopotentialHeight_IsbL-0600_RLatLon0.09_PT022H.grib2 2026-04-17 02:44 283K
20260417T00Z_MSC_RDPS_GeopotentialHeight_IsbL-0650_RLatLon0.09_PT022H.grib2 2026-04-17 02:44 280K
20260417T00Z_MSC_RDPS_GeopotentialHeight_IsbL-0700_RLatLon0.09_PT022H.grib2 2026-04-17 02:44 252K
20260417T00Z_MSC_RDPS_GeopotentialHeight_IsbL-0750_RLatLon0.09_PT022H.grib2 2026-04-17 02:44 254K
20260417T00Z_MSC_RDPS_GeopotentialHeight_IsbL-0800_RLatLon0.09_PT022H.grib2 2026-04-17 02:44 343K
20260417T00Z_MSC_RDPS_GeopotentialHeight_IsbL-0850_RLatLon0.09_PT022H.grib2 2026-04-17 02:44 352K
20260417T00Z_MSC_RDPS_GeopotentialHeight_IsbL-0875_RLatLon0.09_PT022H.grib2 2026-04-17 02:44 356K
20260417T00Z_MSC_RDPS_GeopotentialHeight_IsbL-0900_RLatLon0.09_PT022H.grib2 2026-04-17 02:44 362K
20260417T00Z_MSC_RDPS_GeopotentialHeight_IsbL-0925_RLatLon0.09_PT022H.grib2 2026-04-17 02:44 364K
20260417T00Z_MSC_RDPS_GeopotentialHeight_IsbL-0950_RLatLon0.09_PT022H.grib2 2026-04-17 02:44 366K
20260417T00Z_MSC_RDPS_GeopotentialHeight_IsbL-0970_RLatLon0.09_PT022H.grib2 2026-04-17 02:44 373K
20260417T00Z_MSC_RDPS_GeopotentialHeight_IsbL-0985_RLatLon0.09_PT022H.grib2 2026-04-17 02:44 382K
20260417T00Z_MSC_RDPS_GeopotentialHeight_IsbL-1000_RLatLon0.09_PT022H.grib2 2026-04-17 02:44 395K
20260417T00Z_MSC_RDPS_GeopotentialHeight_IsbL-1015_RLatLon0.09_PT022H.grib2 2026-04-17 02:44 410K
20260417T00Z_MSC_RDPS_Humidex_Sfc_RLatLon0.09_PT022H.grib2 2026-04-17 02:44 2.4M
20260417T00Z_MSC_RDPS_IcePellets-Accum1h_Sfc_RLatLon0.09_PT022H.grib2 2026-04-17 02:44 6.1K
20260417T00Z_MSC_RDPS_IcePellets-Accum_Sfc_RLatLon0.09_PT022H.grib2 2026-04-17 02:44 29K
20260417T00Z_MSC_RDPS_KIndex_Sfc_RLatLon0.09_PT022H.grib2 2026-04-17 02:44 2.3M
20260417T00Z_MSC_RDPS_LatentHeatNetFlux_Sfc_RLatLon0.09_PT022H.grib2 2026-04-17 02:44 277K
20260417T00Z_MSC_RDPS_LiftedIndex-MU-VT_IsbL-0500_RLatLon0.09_PT022H.grib2 2026-04-17 02:44 2.4M
20260417T00Z_MSC_RDPS_NetLongwaveRadiationFlux-Accum_Sfc_RLatLon0.09_PT022H.grib2 2026-04-17 02:44 562K
20260417T00Z_MSC_RDPS_NetShortwaveRadiationFlux-Accum_Sfc_RLatLon0.09_PT022H.grib2 2026-04-17 02:44 612K
20260417T00Z_MSC_RDPS_PlanetaryBoundaryLayerHeight_Sfc_RLatLon0.09_PT022H.grib2 2026-04-17 02:44 1.0M
20260417T00Z_MSC_RDPS_Precip-Accum1h_Sfc_RLatLon0.09_PT022H.grib2 2026-04-17 02:44 1.2M
20260417T00Z_MSC_RDPS_Precip-Accum_Sfc_RLatLon0.09_PT022H.grib2 2026-04-17 02:44 1.9M
20260417T00Z_MSC_RDPS_PrecipRate_Sfc_RLatLon0.09_PT022H.grib2 2026-04-17 02:44 155K
20260417T00Z_MSC_RDPS_PrecipType-Instant_Sfc_RLatLon0.09_PT022H.grib2 2026-04-17 02:44 542K
20260417T00Z_MSC_RDPS_Pressure-Trend3h_Sfc_RLatLon0.09_PT022H.grib2 2026-04-17 02:44 1.2M
20260417T00Z_MSC_RDPS_Pressure_MSL_RLatLon0.09_PT022H.grib2 2026-04-17 02:44 298K
20260417T00Z_MSC_RDPS_Pressure_PVU-1.5_RLatLon0.09_PT022H.grib2 2026-04-17 02:44 2.4M
20260417T00Z_MSC_RDPS_Pressure_PVU-1_RLatLon0.09_PT022H.grib2 2026-04-17 02:44 2.4M
20260417T00Z_MSC_RDPS_Pressure_PVU-2_RLatLon0.09_PT022H.grib2 2026-04-17 02:44 2.4M
20260417T00Z_MSC_RDPS_Pressure_Sfc_RLatLon0.09_PT022H.grib2 2026-04-17 02:44 499K
20260417T00Z_MSC_RDPS_RadiativeTemp_Sfc_RLatLon0.09_PT022H.grib2 2026-04-17 02:44 324K
20260417T00Z_MSC_RDPS_Rain-Accum1h_Sfc_RLatLon0.09_PT022H.grib2 2026-04-17 02:44 564K
20260417T00Z_MSC_RDPS_Rain-Accum_Sfc_RLatLon0.09_PT022H.grib2 2026-04-17 02:44 1.4M
20260417T00Z_MSC_RDPS_RelativeHumidity_AGL-2m_RLatLon0.09_PT022H.grib2 2026-04-17 02:44 1.0M
20260417T00Z_MSC_RDPS_RelativeHumidity_IsbL-0010_RLatLon0.09_PT022H.grib2 2026-04-17 02:44 513K
20260417T00Z_MSC_RDPS_RelativeHumidity_IsbL-0020_RLatLon0.09_PT022H.grib2 2026-04-17 02:44 405K
20260417T00Z_MSC_RDPS_RelativeHumidity_IsbL-0030_RLatLon0.09_PT022H.grib2 2026-04-17 02:44 358K
20260417T00Z_MSC_RDPS_RelativeHumidity_IsbL-0050_RLatLon0.09_PT022H.grib2 2026-04-17 02:44 334K
20260417T00Z_MSC_RDPS_RelativeHumidity_IsbL-0100_RLatLon0.09_PT022H.grib2 2026-04-17 02:44 261K
20260417T00Z_MSC_RDPS_RelativeHumidity_IsbL-0150_RLatLon0.09_PT022H.grib2 2026-04-17 02:44 382K
20260417T00Z_MSC_RDPS_RelativeHumidity_IsbL-0175_RLatLon0.09_PT022H.grib2 2026-04-17 02:44 466K
20260417T00Z_MSC_RDPS_RelativeHumidity_IsbL-0200_RLatLon0.09_PT022H.grib2 2026-04-17 02:44 541K
20260417T00Z_MSC_RDPS_RelativeHumidity_IsbL-0225_RLatLon0.09_PT022H.grib2 2026-04-17 02:44 610K
20260417T00Z_MSC_RDPS_RelativeHumidity_IsbL-0250_RLatLon0.09_PT022H.grib2 2026-04-17 02:44 682K
20260417T00Z_MSC_RDPS_RelativeHumidity_IsbL-0275_RLatLon0.09_PT022H.grib2 2026-04-17 02:44 707K
20260417T00Z_MSC_RDPS_RelativeHumidity_IsbL-0300_RLatLon0.09_PT022H.grib2 2026-04-17 02:44 747K
20260417T00Z_MSC_RDPS_RelativeHumidity_IsbL-0350_RLatLon0.09_PT022H.grib2 2026-04-17 02:44 755K
20260417T00Z_MSC_RDPS_RelativeHumidity_IsbL-0400_RLatLon0.09_PT022H.grib2 2026-04-17 02:44 773K
20260417T00Z_MSC_RDPS_RelativeHumidity_IsbL-0450_RLatLon0.09_PT022H.grib2 2026-04-17 02:44 784K
20260417T00Z_MSC_RDPS_RelativeHumidity_IsbL-0500_RLatLon0.09_PT022H.grib2 2026-04-17 02:44 808K
20260417T00Z_MSC_RDPS_RelativeHumidity_IsbL-0550_RLatLon0.09_PT022H.grib2 2026-04-17 02:44 832K
20260417T00Z_MSC_RDPS_RelativeHumidity_IsbL-0600_RLatLon0.09_PT022H.grib2 2026-04-17 02:44 854K
20260417T00Z_MSC_RDPS_RelativeHumidity_IsbL-0650_RLatLon0.09_PT022H.grib2 2026-04-17 02:44 867K
20260417T00Z_MSC_RDPS_RelativeHumidity_IsbL-0700_RLatLon0.09_PT022H.grib2 2026-04-17 02:44 890K
20260417T00Z_MSC_RDPS_RelativeHumidity_IsbL-0750_RLatLon0.09_PT022H.grib2 2026-04-17 02:44 937K
20260417T00Z_MSC_RDPS_RelativeHumidity_IsbL-0800_RLatLon0.09_PT022H.grib2 2026-04-17 02:44 1.0M
20260417T00Z_MSC_RDPS_RelativeHumidity_IsbL-0850_RLatLon0.09_PT022H.grib2 2026-04-17 02:44 1.0M
20260417T00Z_MSC_RDPS_RelativeHumidity_IsbL-0875_RLatLon0.09_PT022H.grib2 2026-04-17 02:44 1.1M
20260417T00Z_MSC_RDPS_RelativeHumidity_IsbL-0900_RLatLon0.09_PT022H.grib2 2026-04-17 02:44 1.1M
20260417T00Z_MSC_RDPS_RelativeHumidity_IsbL-0925_RLatLon0.09_PT022H.grib2 2026-04-17 02:44 1.1M
20260417T00Z_MSC_RDPS_RelativeHumidity_IsbL-0950_RLatLon0.09_PT022H.grib2 2026-04-17 02:44 1.1M
20260417T00Z_MSC_RDPS_RelativeHumidity_IsbL-0970_RLatLon0.09_PT022H.grib2 2026-04-17 02:44 1.0M
20260417T00Z_MSC_RDPS_RelativeHumidity_IsbL-0985_RLatLon0.09_PT022H.grib2 2026-04-17 02:44 1.0M
20260417T00Z_MSC_RDPS_RelativeHumidity_IsbL-1000_RLatLon0.09_PT022H.grib2 2026-04-17 02:44 1.0M
20260417T00Z_MSC_RDPS_RelativeHumidity_IsbL-1015_RLatLon0.09_PT022H.grib2 2026-04-17 02:44 1.0M
20260417T00Z_MSC_RDPS_Runoff-Accum_Sfc_RLatLon0.09_PT022H.grib2 2026-04-17 02:44 47K
20260417T00Z_MSC_RDPS_SWEATIndex_Sfc_RLatLon0.09_PT022H.grib2 2026-04-17 02:44 2.4M
20260417T00Z_MSC_RDPS_SeeingIndex_EAtm_RLatLon0.09_PT022H.grib2 2026-04-17 02:44 1.0M
20260417T00Z_MSC_RDPS_SensibleHeatNetFlux_Sfc_RLatLon0.09_PT022H.grib2 2026-04-17 02:44 342K
20260417T00Z_MSC_RDPS_ShowalterIndex_IsbL-0500_RLatLon0.09_PT022H.grib2 2026-04-17 02:44 2.6M
20260417T00Z_MSC_RDPS_SkyTransparencyIndex_EAtm_RLatLon0.09_PT022H.grib2 2026-04-17 02:44 722K
20260417T00Z_MSC_RDPS_Snow-Accum1h_Sfc_RLatLon0.09_PT022H.grib2 2026-04-17 02:44 591K
20260417T00Z_MSC_RDPS_Snow-Accum_Sfc_RLatLon0.09_PT022H.grib2 2026-04-17 02:44 757K
20260417T00Z_MSC_RDPS_SnowDensity_Sfc_RLatLon0.09_PT022H.grib2 2026-04-17 02:44 177K
20260417T00Z_MSC_RDPS_SnowDepth_Sfc_RLatLon0.09_PT022H.grib2 2026-04-17 02:44 734K
20260417T00Z_MSC_RDPS_SoilTemp_DBS-0to10cm_RLatLon0.09_PT022H.grib2 2026-04-17 02:44 221K
20260417T00Z_MSC_RDPS_SoilTemp_Sfc_RLatLon0.09_PT022H.grib2 2026-04-17 02:44 274K
20260417T00Z_MSC_RDPS_SoilVolumetricIceContent_Sfc_RLatLon0.09_PT022H.grib2 2026-04-17 02:44 176K
20260417T00Z_MSC_RDPS_SoilVolumetricWaterContent_DBS-0to10cm_RLatLon0.09_PT022H.grib2 2026-04-17 02:44 245K
20260417T00Z_MSC_RDPS_SoilVolumetricWaterContent_DBS-0to1cm_RLatLon0.09_PT022H.grib2 2026-04-17 02:44 331K
20260417T00Z_MSC_RDPS_SpecificHumidity_AGL-120m_RLatLon0.09_PT022H.grib2 2026-04-17 02:44 481K
20260417T00Z_MSC_RDPS_SpecificHumidity_AGL-2m_RLatLon0.09_PT022H.grib2 2026-04-17 02:44 645K
20260417T00Z_MSC_RDPS_SpecificHumidity_AGL-40m_RLatLon0.09_PT022H.grib2 2026-04-17 02:44 485K
20260417T00Z_MSC_RDPS_SpecificHumidity_AGL-80m_RLatLon0.09_PT022H.grib2 2026-04-17 02:44 482K
20260417T00Z_MSC_RDPS_SpecificHumidity_IsbL-0001_RLatLon0.09_PT022H.grib2 2026-04-17 02:44 306K
20260417T00Z_MSC_RDPS_SpecificHumidity_IsbL-0005_RLatLon0.09_PT022H.grib2 2026-04-17 02:44 347K
20260417T00Z_MSC_RDPS_SpecificHumidity_IsbL-0010_RLatLon0.09_PT022H.grib2 2026-04-17 02:44 383K
20260417T00Z_MSC_RDPS_SpecificHumidity_IsbL-0020_RLatLon0.09_PT022H.grib2 2026-04-17 02:44 384K
20260417T00Z_MSC_RDPS_SpecificHumidity_IsbL-0030_RLatLon0.09_PT022H.grib2 2026-04-17 02:44 440K
20260417T00Z_MSC_RDPS_SpecificHumidity_IsbL-0050_RLatLon0.09_PT022H.grib2 2026-04-17 02:44 470K
20260417T00Z_MSC_RDPS_SpecificHumidity_IsbL-0100_RLatLon0.09_PT022H.grib2 2026-04-17 02:44 387K
20260417T00Z_MSC_RDPS_SpecificHumidity_IsbL-0150_RLatLon0.09_PT022H.grib2 2026-04-17 02:44 465K
20260417T00Z_MSC_RDPS_SpecificHumidity_IsbL-0175_RLatLon0.09_PT022H.grib2 2026-04-17 02:44 533K
20260417T00Z_MSC_RDPS_SpecificHumidity_IsbL-0200_RLatLon0.09_PT022H.grib2 2026-04-17 02:44 440K
20260417T00Z_MSC_RDPS_SpecificHumidity_IsbL-0225_RLatLon0.09_PT022H.grib2 2026-04-17 02:44 457K
20260417T00Z_MSC_RDPS_SpecificHumidity_IsbL-0250_RLatLon0.09_PT022H.grib2 2026-04-17 02:44 504K
20260417T00Z_MSC_RDPS_SpecificHumidity_IsbL-0275_RLatLon0.09_PT022H.grib2 2026-04-17 02:44 462K
20260417T00Z_MSC_RDPS_SpecificHumidity_IsbL-0300_RLatLon0.09_PT022H.grib2 2026-04-17 02:44 557K
20260417T00Z_MSC_RDPS_SpecificHumidity_IsbL-0350_RLatLon0.09_PT022H.grib2 2026-04-17 02:44 540K
20260417T00Z_MSC_RDPS_SpecificHumidity_IsbL-0400_RLatLon0.09_PT022H.grib2 2026-04-17 02:44 498K
20260417T00Z_MSC_RDPS_SpecificHumidity_IsbL-0450_RLatLon0.09_PT022H.grib2 2026-04-17 02:44 555K
20260417T00Z_MSC_RDPS_SpecificHumidity_IsbL-0500_RLatLon0.09_PT022H.grib2 2026-04-17 02:44 494K
20260417T00Z_MSC_RDPS_SpecificHumidity_IsbL-0550_RLatLon0.09_PT022H.grib2 2026-04-17 02:44 573K
20260417T00Z_MSC_RDPS_SpecificHumidity_IsbL-0600_RLatLon0.09_PT022H.grib2 2026-04-17 02:44 628K
20260417T00Z_MSC_RDPS_SpecificHumidity_IsbL-0650_RLatLon0.09_PT022H.grib2 2026-04-17 02:44 546K
20260417T00Z_MSC_RDPS_SpecificHumidity_IsbL-0700_RLatLon0.09_PT022H.grib2 2026-04-17 02:44 589K
20260417T00Z_MSC_RDPS_SpecificHumidity_IsbL-0750_RLatLon0.09_PT022H.grib2 2026-04-17 02:44 648K
20260417T00Z_MSC_RDPS_SpecificHumidity_IsbL-0800_RLatLon0.09_PT022H.grib2 2026-04-17 02:44 735K
20260417T00Z_MSC_RDPS_SpecificHumidity_IsbL-0850_RLatLon0.09_PT022H.grib2 2026-04-17 02:44 804K
20260417T00Z_MSC_RDPS_SpecificHumidity_IsbL-0875_RLatLon0.09_PT022H.grib2 2026-04-17 02:44 686K
20260417T00Z_MSC_RDPS_SpecificHumidity_IsbL-0900_RLatLon0.09_PT022H.grib2 2026-04-17 02:44 697K
20260417T00Z_MSC_RDPS_SpecificHumidity_IsbL-0925_RLatLon0.09_PT022H.grib2 2026-04-17 02:44 698K
20260417T00Z_MSC_RDPS_SpecificHumidity_IsbL-0950_RLatLon0.09_PT022H.grib2 2026-04-17 02:44 694K
20260417T00Z_MSC_RDPS_SpecificHumidity_IsbL-0970_RLatLon0.09_PT022H.grib2 2026-04-17 02:44 686K
20260417T00Z_MSC_RDPS_SpecificHumidity_IsbL-0985_RLatLon0.09_PT022H.grib2 2026-04-17 02:44 677K
20260417T00Z_MSC_RDPS_SpecificHumidity_IsbL-1000_RLatLon0.09_PT022H.grib2 2026-04-17 02:44 669K
20260417T00Z_MSC_RDPS_SpecificHumidity_IsbL-1015_RLatLon0.09_PT022H.grib2 2026-04-17 02:44 660K
20260417T00Z_MSC_RDPS_SpecificHumidity_Sfc_RLatLon0.09_PT022H.grib2 2026-04-17 02:44 328K
20260417T00Z_MSC_RDPS_StormRelativeHelicity_EtaL-10000_RLatLon0.09_PT022H.grib2 2026-04-17 02:44 1.1M
20260417T00Z_MSC_RDPS_StormSeverityIndex_EtaL-10000_RLatLon0.09_PT022H.grib2 2026-04-17 02:44 1.2M
20260417T00Z_MSC_RDPS_Thickness_IsbL-0850to0700_RLatLon0.09_PT022H.grib2 2026-04-17 02:44 176K
20260417T00Z_MSC_RDPS_Thickness_IsbL-1000to0500_RLatLon0.09_PT022H.grib2 2026-04-17 02:44 200K
20260417T00Z_MSC_RDPS_Thickness_IsbL-1000to0850_RLatLon0.09_PT022H.grib2 2026-04-17 02:44 187K
20260417T00Z_MSC_RDPS_TotalCloudCover_Sfc_RLatLon0.09_PT022H.grib2 2026-04-17 02:44 651K
20260417T00Z_MSC_RDPS_TotalTotalsIndex_Sfc_RLatLon0.09_PT022H.grib2 2026-04-17 02:44 2.4M
20260417T00Z_MSC_RDPS_UVIndex-ClearSky_Sfc_RLatLon0.09_PT022H.grib2 2026-04-17 02:44 168K
20260417T00Z_MSC_RDPS_UVIndex_Sfc_RLatLon0.09_PT022H.grib2 2026-04-17 02:44 385K
20260417T00Z_MSC_RDPS_UpwardLongwaveRadiationFlux_NTAtm_RLatLon0.09_PT022H.grib2 2026-04-17 02:44 374K
20260417T00Z_MSC_RDPS_UpwardShortwaveRadiationFlux_NTAtm_RLatLon0.09_PT022H.grib2 2026-04-17 02:44 435K
20260417T00Z_MSC_RDPS_VerticalVelocity_IsbL-0250_RLatLon0.09_PT022H.grib2 2026-04-17 02:44 449K
20260417T00Z_MSC_RDPS_VerticalVelocity_IsbL-0500_RLatLon0.09_PT022H.grib2 2026-04-17 02:44 539K
20260417T00Z_MSC_RDPS_VerticalVelocity_IsbL-0700_RLatLon0.09_PT022H.grib2 2026-04-17 02:44 590K
20260417T00Z_MSC_RDPS_VerticalVelocity_IsbL-0850_RLatLon0.09_PT022H.grib2 2026-04-17 02:44 692K
20260417T00Z_MSC_RDPS_VerticalWindShear_EtaL-6500_RLatLon0.09_PT022H.grib2 2026-04-17 02:44 1.1M
20260417T00Z_MSC_RDPS_WindChill_Sfc_RLatLon0.09_PT022H.grib2 2026-04-17 02:44 1.1M
20260417T00Z_MSC_RDPS_WindDir_AGL-10m_RLatLon0.09_PT022H.grib2 2026-04-17 02:44 965K
20260417T00Z_MSC_RDPS_WindDir_AGL-120m_RLatLon0.09_PT022H.grib2 2026-04-17 02:44 605K
20260417T00Z_MSC_RDPS_WindDir_AGL-40m_RLatLon0.09_PT022H.grib2 2026-04-17 02:44 629K
20260417T00Z_MSC_RDPS_WindDir_AGL-80m_RLatLon0.09_PT022H.grib2 2026-04-17 02:44 615K
20260417T00Z_MSC_RDPS_WindDir_IsbL-0001_RLatLon0.09_PT022H.grib2 2026-04-17 02:44 253K
20260417T00Z_MSC_RDPS_WindDir_IsbL-0005_RLatLon0.09_PT022H.grib2 2026-04-17 02:44 344K
20260417T00Z_MSC_RDPS_WindDir_IsbL-0010_RLatLon0.09_PT022H.grib2 2026-04-17 02:44 364K
20260417T00Z_MSC_RDPS_WindDir_IsbL-0020_RLatLon0.09_PT022H.grib2 2026-04-17 02:44 381K
20260417T00Z_MSC_RDPS_WindDir_IsbL-0030_RLatLon0.09_PT022H.grib2 2026-04-17 02:44 379K
20260417T00Z_MSC_RDPS_WindDir_IsbL-0050_RLatLon0.09_PT022H.grib2 2026-04-17 02:44 402K
20260417T00Z_MSC_RDPS_WindDir_IsbL-0100_RLatLon0.09_PT022H.grib2 2026-04-17 02:44 387K
20260417T00Z_MSC_RDPS_WindDir_IsbL-0150_RLatLon0.09_PT022H.grib2 2026-04-17 02:44 375K
20260417T00Z_MSC_RDPS_WindDir_IsbL-0175_RLatLon0.09_PT022H.grib2 2026-04-17 02:44 399K
20260417T00Z_MSC_RDPS_WindDir_IsbL-0200_RLatLon0.09_PT022H.grib2 2026-04-17 02:44 417K
20260417T00Z_MSC_RDPS_WindDir_IsbL-0225_RLatLon0.09_PT022H.grib2 2026-04-17 02:44 424K
20260417T00Z_MSC_RDPS_WindDir_IsbL-0250_RLatLon0.09_PT022H.grib2 2026-04-17 02:44 427K
20260417T00Z_MSC_RDPS_WindDir_IsbL-0275_RLatLon0.09_PT022H.grib2 2026-04-17 02:44 450K
20260417T00Z_MSC_RDPS_WindDir_IsbL-0300_RLatLon0.09_PT022H.grib2 2026-04-17 02:44 448K
20260417T00Z_MSC_RDPS_WindDir_IsbL-0350_RLatLon0.09_PT022H.grib2 2026-04-17 02:44 468K
20260417T00Z_MSC_RDPS_WindDir_IsbL-0400_RLatLon0.09_PT022H.grib2 2026-04-17 02:44 483K
20260417T00Z_MSC_RDPS_WindDir_IsbL-0450_RLatLon0.09_PT022H.grib2 2026-04-17 02:44 503K
20260417T00Z_MSC_RDPS_WindDir_IsbL-0500_RLatLon0.09_PT022H.grib2 2026-04-17 02:44 534K
20260417T00Z_MSC_RDPS_WindDir_IsbL-0550_RLatLon0.09_PT022H.grib2 2026-04-17 02:44 567K
20260417T00Z_MSC_RDPS_WindDir_IsbL-0600_RLatLon0.09_PT022H.grib2 2026-04-17 02:44 596K
20260417T00Z_MSC_RDPS_WindDir_IsbL-0650_RLatLon0.09_PT022H.grib2 2026-04-17 02:44 642K
20260417T00Z_MSC_RDPS_WindDir_IsbL-0700_RLatLon0.09_PT022H.grib2 2026-04-17 02:44 695K
20260417T00Z_MSC_RDPS_WindDir_IsbL-0750_RLatLon0.09_PT022H.grib2 2026-04-17 02:44 742K
20260417T00Z_MSC_RDPS_WindDir_IsbL-0800_RLatLon0.09_PT022H.grib2 2026-04-17 02:44 799K
20260417T00Z_MSC_RDPS_WindDir_IsbL-0850_RLatLon0.09_PT022H.grib2 2026-04-17 02:44 860K
20260417T00Z_MSC_RDPS_WindDir_IsbL-0875_RLatLon0.09_PT022H.grib2 2026-04-17 02:44 886K
20260417T00Z_MSC_RDPS_WindDir_IsbL-0900_RLatLon0.09_PT022H.grib2 2026-04-17 02:44 906K
20260417T00Z_MSC_RDPS_WindDir_IsbL-0925_RLatLon0.09_PT022H.grib2 2026-04-17 02:44 913K
20260417T00Z_MSC_RDPS_WindDir_IsbL-0950_RLatLon0.09_PT022H.grib2 2026-04-17 02:44 909K
20260417T00Z_MSC_RDPS_WindDir_IsbL-0970_RLatLon0.09_PT022H.grib2 2026-04-17 02:44 912K
20260417T00Z_MSC_RDPS_WindDir_IsbL-0985_RLatLon0.09_PT022H.grib2 2026-04-17 02:44 920K
20260417T00Z_MSC_RDPS_WindDir_IsbL-1000_RLatLon0.09_PT022H.grib2 2026-04-17 02:44 936K
20260417T00Z_MSC_RDPS_WindDir_IsbL-1015_RLatLon0.09_PT022H.grib2 2026-04-17 02:44 957K
20260417T00Z_MSC_RDPS_WindGust-Max_AGL-10m_RLatLon0.09_PT022H.grib2 2026-04-17 02:44 952K
20260417T00Z_MSC_RDPS_WindGust-Min_AGL-10m_RLatLon0.09_PT022H.grib2 2026-04-17 02:44 1.0M
20260417T00Z_MSC_RDPS_WindGust_AGL-10m_RLatLon0.09_PT022H.grib2 2026-04-17 02:44 1.0M
20260417T00Z_MSC_RDPS_WindSpeed_AGL-10m_RLatLon0.09_PT022H.grib2 2026-04-17 02:44 844K
20260417T00Z_MSC_RDPS_WindSpeed_AGL-120m_RLatLon0.09_PT022H.grib2 2026-04-17 02:44 536K
20260417T00Z_MSC_RDPS_WindSpeed_AGL-40m_RLatLon0.09_PT022H.grib2 2026-04-17 02:44 542K
20260417T00Z_MSC_RDPS_WindSpeed_AGL-80m_RLatLon0.09_PT022H.grib2 2026-04-17 02:44 538K
20260417T00Z_MSC_RDPS_WindSpeed_IsbL-0001_RLatLon0.09_PT022H.grib2 2026-04-17 02:44 294K
20260417T00Z_MSC_RDPS_WindSpeed_IsbL-0005_RLatLon0.09_PT022H.grib2 2026-04-17 02:44 339K
20260417T00Z_MSC_RDPS_WindSpeed_IsbL-0010_RLatLon0.09_PT022H.grib2 2026-04-17 02:44 321K
20260417T00Z_MSC_RDPS_WindSpeed_IsbL-0020_RLatLon0.09_PT022H.grib2 2026-04-17 02:44 371K
20260417T00Z_MSC_RDPS_WindSpeed_IsbL-0030_RLatLon0.09_PT022H.grib2 2026-04-17 02:44 369K
20260417T00Z_MSC_RDPS_WindSpeed_IsbL-0050_RLatLon0.09_PT022H.grib2 2026-04-17 02:44 368K
20260417T00Z_MSC_RDPS_WindSpeed_IsbL-0100_RLatLon0.09_PT022H.grib2 2026-04-17 02:44 483K
20260417T00Z_MSC_RDPS_WindSpeed_IsbL-0150_RLatLon0.09_PT022H.grib2 2026-04-17 02:44 370K
20260417T00Z_MSC_RDPS_WindSpeed_IsbL-0175_RLatLon0.09_PT022H.grib2 2026-04-17 02:44 398K
20260417T00Z_MSC_RDPS_WindSpeed_IsbL-0200_RLatLon0.09_PT022H.grib2 2026-04-17 02:44 436K
20260417T00Z_MSC_RDPS_WindSpeed_IsbL-0225_RLatLon0.09_PT022H.grib2 2026-04-17 02:44 445K
20260417T00Z_MSC_RDPS_WindSpeed_IsbL-0250_RLatLon0.09_PT022H.grib2 2026-04-17 02:44 451K
20260417T00Z_MSC_RDPS_WindSpeed_IsbL-0275_RLatLon0.09_PT022H.grib2 2026-04-17 02:44 467K
20260417T00Z_MSC_RDPS_WindSpeed_IsbL-0300_RLatLon0.09_PT022H.grib2 2026-04-17 02:44 462K
20260417T00Z_MSC_RDPS_WindSpeed_IsbL-0350_RLatLon0.09_PT022H.grib2 2026-04-17 02:44 468K
20260417T00Z_MSC_RDPS_WindSpeed_IsbL-0400_RLatLon0.09_PT022H.grib2 2026-04-17 02:44 455K
20260417T00Z_MSC_RDPS_WindSpeed_IsbL-0450_RLatLon0.09_PT022H.grib2 2026-04-17 02:44 452K
20260417T00Z_MSC_RDPS_WindSpeed_IsbL-0500_RLatLon0.09_PT022H.grib2 2026-04-17 02:44 455K
20260417T00Z_MSC_RDPS_WindSpeed_IsbL-0550_RLatLon0.09_PT022H.grib2 2026-04-17 02:44 577K
20260417T00Z_MSC_RDPS_WindSpeed_IsbL-0600_RLatLon0.09_PT022H.grib2 2026-04-17 02:44 589K
20260417T00Z_MSC_RDPS_WindSpeed_IsbL-0650_RLatLon0.09_PT022H.grib2 2026-04-17 02:44 611K
20260417T00Z_MSC_RDPS_WindSpeed_IsbL-0700_RLatLon0.09_PT022H.grib2 2026-04-17 02:44 633K
20260417T00Z_MSC_RDPS_WindSpeed_IsbL-0750_RLatLon0.09_PT022H.grib2 2026-04-17 02:44 663K
20260417T00Z_MSC_RDPS_WindSpeed_IsbL-0800_RLatLon0.09_PT022H.grib2 2026-04-17 02:44 712K
20260417T00Z_MSC_RDPS_WindSpeed_IsbL-0850_RLatLon0.09_PT022H.grib2 2026-04-17 02:44 766K
20260417T00Z_MSC_RDPS_WindSpeed_IsbL-0875_RLatLon0.09_PT022H.grib2 2026-04-17 02:44 787K
20260417T00Z_MSC_RDPS_WindSpeed_IsbL-0900_RLatLon0.09_PT022H.grib2 2026-04-17 02:44 808K
20260417T00Z_MSC_RDPS_WindSpeed_IsbL-0925_RLatLon0.09_PT022H.grib2 2026-04-17 02:44 867K
20260417T00Z_MSC_RDPS_WindSpeed_IsbL-0950_RLatLon0.09_PT022H.grib2 2026-04-17 02:44 866K
20260417T00Z_MSC_RDPS_WindSpeed_IsbL-0970_RLatLon0.09_PT022H.grib2 2026-04-17 02:44 861K
20260417T00Z_MSC_RDPS_WindSpeed_IsbL-0985_RLatLon0.09_PT022H.grib2 2026-04-17 02:44 857K
20260417T00Z_MSC_RDPS_WindSpeed_IsbL-1000_RLatLon0.09_PT022H.grib2 2026-04-17 02:44 854K
20260417T00Z_MSC_RDPS_WindSpeed_IsbL-1015_RLatLon0.09_PT022H.grib2 2026-04-17 02:44 846K
20260417T00Z_MSC_RDPS_WindU_AGL-10m_RLatLon0.09_PT022H.grib2 2026-04-17 02:44 436K
20260417T00Z_MSC_RDPS_WindU_AGL-120m_RLatLon0.09_PT022H.grib2 2026-04-17 02:44 419K
20260417T00Z_MSC_RDPS_WindU_AGL-40m_RLatLon0.09_PT022H.grib2 2026-04-17 02:44 540K
20260417T00Z_MSC_RDPS_WindU_AGL-80m_RLatLon0.09_PT022H.grib2 2026-04-17 02:44 420K
20260417T00Z_MSC_RDPS_WindU_IsbL-0001_RLatLon0.09_PT022H.grib2 2026-04-17 02:44 266K
20260417T00Z_MSC_RDPS_WindU_IsbL-0005_RLatLon0.09_PT022H.grib2 2026-04-17 02:44 304K
20260417T00Z_MSC_RDPS_WindU_IsbL-0010_RLatLon0.09_PT022H.grib2 2026-04-17 02:44 245K
20260417T00Z_MSC_RDPS_WindU_IsbL-0020_RLatLon0.09_PT022H.grib2 2026-04-17 02:44 258K
20260417T00Z_MSC_RDPS_WindU_IsbL-0030_RLatLon0.09_PT022H.grib2 2026-04-17 02:44 258K
20260417T00Z_MSC_RDPS_WindU_IsbL-0050_RLatLon0.09_PT022H.grib2 2026-04-17 02:44 361K
20260417T00Z_MSC_RDPS_WindU_IsbL-0100_RLatLon0.09_PT022H.grib2 2026-04-17 02:44 341K
20260417T00Z_MSC_RDPS_WindU_IsbL-0150_RLatLon0.09_PT022H.grib2 2026-04-17 02:44 389K
20260417T00Z_MSC_RDPS_WindU_IsbL-0175_RLatLon0.09_PT022H.grib2 2026-04-17 02:44 414K
20260417T00Z_MSC_RDPS_WindU_IsbL-0200_RLatLon0.09_PT022H.grib2 2026-04-17 02:44 431K
20260417T00Z_MSC_RDPS_WindU_IsbL-0225_RLatLon0.09_PT022H.grib2 2026-04-17 02:44 439K
20260417T00Z_MSC_RDPS_WindU_IsbL-0250_RLatLon0.09_PT022H.grib2 2026-04-17 02:44 343K
20260417T00Z_MSC_RDPS_WindU_IsbL-0275_RLatLon0.09_PT022H.grib2 2026-04-17 02:44 356K
20260417T00Z_MSC_RDPS_WindU_IsbL-0300_RLatLon0.09_PT022H.grib2 2026-04-17 02:44 349K
20260417T00Z_MSC_RDPS_WindU_IsbL-0350_RLatLon0.09_PT022H.grib2 2026-04-17 02:44 355K
20260417T00Z_MSC_RDPS_WindU_IsbL-0400_RLatLon0.09_PT022H.grib2 2026-04-17 02:44 458K
20260417T00Z_MSC_RDPS_WindU_IsbL-0450_RLatLon0.09_PT022H.grib2 2026-04-17 02:44 458K
20260417T00Z_MSC_RDPS_WindU_IsbL-0500_RLatLon0.09_PT022H.grib2 2026-04-17 02:44 462K
20260417T00Z_MSC_RDPS_WindU_IsbL-0550_RLatLon0.09_PT022H.grib2 2026-04-17 02:44 467K
20260417T00Z_MSC_RDPS_WindU_IsbL-0600_RLatLon0.09_PT022H.grib2 2026-04-17 02:44 478K
20260417T00Z_MSC_RDPS_WindU_IsbL-0650_RLatLon0.09_PT022H.grib2 2026-04-17 02:44 496K
20260417T00Z_MSC_RDPS_WindU_IsbL-0700_RLatLon0.09_PT022H.grib2 2026-04-17 02:44 517K
20260417T00Z_MSC_RDPS_WindU_IsbL-0750_RLatLon0.09_PT022H.grib2 2026-04-17 02:44 529K
20260417T00Z_MSC_RDPS_WindU_IsbL-0800_RLatLon0.09_PT022H.grib2 2026-04-17 02:44 584K
20260417T00Z_MSC_RDPS_WindU_IsbL-0850_RLatLon0.09_PT022H.grib2 2026-04-17 02:44 630K
20260417T00Z_MSC_RDPS_WindU_IsbL-0875_RLatLon0.09_PT022H.grib2 2026-04-17 02:44 647K
20260417T00Z_MSC_RDPS_WindU_IsbL-0900_RLatLon0.09_PT022H.grib2 2026-04-17 02:44 663K
20260417T00Z_MSC_RDPS_WindU_IsbL-0925_RLatLon0.09_PT022H.grib2 2026-04-17 02:44 671K
20260417T00Z_MSC_RDPS_WindU_IsbL-0950_RLatLon0.09_PT022H.grib2 2026-04-17 02:44 660K
20260417T00Z_MSC_RDPS_WindU_IsbL-0970_RLatLon0.09_PT022H.grib2 2026-04-17 02:44 657K
20260417T00Z_MSC_RDPS_WindU_IsbL-0985_RLatLon0.09_PT022H.grib2 2026-04-17 02:44 796K
20260417T00Z_MSC_RDPS_WindU_IsbL-1000_RLatLon0.09_PT022H.grib2 2026-04-17 02:44 794K
20260417T00Z_MSC_RDPS_WindU_IsbL-1015_RLatLon0.09_PT022H.grib2 2026-04-17 02:44 789K
20260417T00Z_MSC_RDPS_WindV_AGL-10m_RLatLon0.09_PT022H.grib2 2026-04-17 02:44 433K
20260417T00Z_MSC_RDPS_WindV_AGL-120m_RLatLon0.09_PT022H.grib2 2026-04-17 02:44 531K
20260417T00Z_MSC_RDPS_WindV_AGL-40m_RLatLon0.09_PT022H.grib2 2026-04-17 02:44 535K
20260417T00Z_MSC_RDPS_WindV_AGL-80m_RLatLon0.09_PT022H.grib2 2026-04-17 02:44 532K
20260417T00Z_MSC_RDPS_WindV_IsbL-0001_RLatLon0.09_PT022H.grib2 2026-04-17 02:44 209K
20260417T00Z_MSC_RDPS_WindV_IsbL-0005_RLatLon0.09_PT022H.grib2 2026-04-17 02:44 304K
20260417T00Z_MSC_RDPS_WindV_IsbL-0010_RLatLon0.09_PT022H.grib2 2026-04-17 02:44 345K
20260417T00Z_MSC_RDPS_WindV_IsbL-0020_RLatLon0.09_PT022H.grib2 2026-04-17 02:44 364K
20260417T00Z_MSC_RDPS_WindV_IsbL-0030_RLatLon0.09_PT022H.grib2 2026-04-17 02:44 364K
20260417T00Z_MSC_RDPS_WindV_IsbL-0050_RLatLon0.09_PT022H.grib2 2026-04-17 02:44 361K
20260417T00Z_MSC_RDPS_WindV_IsbL-0100_RLatLon0.09_PT022H.grib2 2026-04-17 02:44 333K
20260417T00Z_MSC_RDPS_WindV_IsbL-0150_RLatLon0.09_PT022H.grib2 2026-04-17 02:44 383K
20260417T00Z_MSC_RDPS_WindV_IsbL-0175_RLatLon0.09_PT022H.grib2 2026-04-17 02:44 411K
20260417T00Z_MSC_RDPS_WindV_IsbL-0200_RLatLon0.09_PT022H.grib2 2026-04-17 02:44 429K
20260417T00Z_MSC_RDPS_WindV_IsbL-0225_RLatLon0.09_PT022H.grib2 2026-04-17 02:44 339K
20260417T00Z_MSC_RDPS_WindV_IsbL-0250_RLatLon0.09_PT022H.grib2 2026-04-17 02:44 341K
20260417T00Z_MSC_RDPS_WindV_IsbL-0275_RLatLon0.09_PT022H.grib2 2026-04-17 02:44 355K
20260417T00Z_MSC_RDPS_WindV_IsbL-0300_RLatLon0.09_PT022H.grib2 2026-04-17 02:44 349K
20260417T00Z_MSC_RDPS_WindV_IsbL-0350_RLatLon0.09_PT022H.grib2 2026-04-17 02:44 354K
20260417T00Z_MSC_RDPS_WindV_IsbL-0400_RLatLon0.09_PT022H.grib2 2026-04-17 02:44 356K
20260417T00Z_MSC_RDPS_WindV_IsbL-0450_RLatLon0.09_PT022H.grib2 2026-04-17 02:44 456K
20260417T00Z_MSC_RDPS_WindV_IsbL-0500_RLatLon0.09_PT022H.grib2 2026-04-17 02:44 459K
20260417T00Z_MSC_RDPS_WindV_IsbL-0550_RLatLon0.09_PT022H.grib2 2026-04-17 02:44 464K
20260417T00Z_MSC_RDPS_WindV_IsbL-0600_RLatLon0.09_PT022H.grib2 2026-04-17 02:44 475K
20260417T00Z_MSC_RDPS_WindV_IsbL-0650_RLatLon0.09_PT022H.grib2 2026-04-17 02:44 494K
20260417T00Z_MSC_RDPS_WindV_IsbL-0700_RLatLon0.09_PT022H.grib2 2026-04-17 02:44 498K
20260417T00Z_MSC_RDPS_WindV_IsbL-0750_RLatLon0.09_PT022H.grib2 2026-04-17 02:44 525K
20260417T00Z_MSC_RDPS_WindV_IsbL-0800_RLatLon0.09_PT022H.grib2 2026-04-17 02:44 566K
20260417T00Z_MSC_RDPS_WindV_IsbL-0850_RLatLon0.09_PT022H.grib2 2026-04-17 02:44 614K
20260417T00Z_MSC_RDPS_WindV_IsbL-0875_RLatLon0.09_PT022H.grib2 2026-04-17 02:44 634K
20260417T00Z_MSC_RDPS_WindV_IsbL-0900_RLatLon0.09_PT022H.grib2 2026-04-17 02:44 651K
20260417T00Z_MSC_RDPS_WindV_IsbL-0925_RLatLon0.09_PT022H.grib2 2026-04-17 02:44 660K
20260417T00Z_MSC_RDPS_WindV_IsbL-0950_RLatLon0.09_PT022H.grib2 2026-04-17 02:44 657K
20260417T00Z_MSC_RDPS_WindV_IsbL-0970_RLatLon0.09_PT022H.grib2 2026-04-17 02:44 794K
20260417T00Z_MSC_RDPS_WindV_IsbL-0985_RLatLon0.09_PT022H.grib2 2026-04-17 02:44 790K
20260417T00Z_MSC_RDPS_WindV_IsbL-1000_RLatLon0.09_PT022H.grib2 2026-04-17 02:44 834K
20260417T00Z_MSC_RDPS_WindV_IsbL-1015_RLatLon0.09_PT022H.grib2 2026-04-17 02:44 828K